Weather Service Report


764 
ASUS42 KTBW 301617
RWRFL 
FLORIDA REGIONAL WEATHER ROUNDUP
NATIONAL WEATHER SERVICE TAMPA BAY RUSKIN FL
1200 PM EDT TUE AUG 30 2016

NOTE: "FAIR" INDICATES FEW OR NO CLOUDS BELOW 12,000 FEET WITH NO
SIGNIFICANT WEATHER AND/OR OBSTRUCTIONS TO VISIBILITY.

FLZ001>010-012>015-112-114-115-301700-
PANHANDLE FLORIDA
  
CITY           SKY/WX    TMP DP  RH WIND       PRES   REMARKS
PENSACOLA      MOSUNNY   87  73  62 VRB7      29.98R                  
PENSACOLA NAS  MOSUNNY   88  73  61 E14       29.97R HX  95           
MILTON NAS     MOSUNNY   87  75  67 E10       29.99  HX  96           
CRESTVIEW      MOSUNNY   88  72  58 E8G17     30.01S                  
DUKE FIELD     MOSUNNY   87  71  60 NE9G17    29.98S                  
VALPARAISO     MOSUNNY   89  71  56 E10       29.98R HX  95           
MARY ESTHER    MOSUNNY   88  70  55 E10       29.96S                  
PANAMA CITY    PTSUNNY   84  73  69 NE10      29.97S                  
TYNDALL AFB    MOSUNNY   85  74  69 E9        29.97F                  
APALACHICOLA   MOSUNNY   86  76  71 E15G21    29.94F HX  96           

STATION/POSITION SKY/WX   TEMP    WIND        PRES    WAVE   SWELL
                          AIR SEA DIR/SP/G            HT/PER HT/PER
                          (F)     (DEG/KT/KT) (MB)    (FT/S) (FT/S)
30.1N   87.6W              82 85   80/ 16/ 19 1014.3R   4/ 7   2/ 7
29.2N   88.2W              84 85   60/ 16/ 19 1012.9R
28.8N   86.0W              84 85   10/ 16/ 17 1012.7R   6/ 7   5/ 7
PANAMA CITY BEAC           83 86   40/ 10/ 14 1015.1R
TOWER C                    81      70/ 18/ 20 1014.2F
28.5N   84.5W              83 85  100/ 17/ 21 1012.8R   4/ 5   2/ 7

$$
FLZ011-016>038-118-127-128-134-139-239-301700-
NORTH FLORIDA
  
CITY           SKY/WX    TMP DP  RH WIND       PRES   REMARKS
MARIANNA       MOSUNNY   85  73  67 E9        29.99S                  
TALLAHASSEE    PTSUNNY   85  74  69 NE12      29.99S                  
PERRY          PTSUNNY   86  75  68 NE6       29.98F HX  95           
CROSS CITY     PTSUNNY   86  73  66 E8        29.96S                  
LAKE CITY      PTSUNNY   82  73  74 E9        29.99S                  
GAINESVILLE    PTSUNNY   85  72  65 NE10      29.97S                  
WILLISTON      FAIR      86  75  70 NE6       29.96S HX  95           
PALATKA        LGT RAIN  75  59  57 E10       29.98F                  
JACKSONVILLE   MOSUNNY   86  74  67 E16G22    29.99F                  
JAX NAS        PTSUNNY   87  72  60 E13       29.99F                  
FERNANDINA BEA FAIR      90  73  58 E13G20    30.00F HX  98           
ST AUGUSTINE   LGT RAIN  79  75  89 E13       30.00S FOG              

STATION/POSITION SKY/WX   TEMP    WIND        PRES    WAVE   SWELL
                          AIR SEA DIR/SP/G            HT/PER HT/PER
                          (F)     (DEG/KT/KT) (MB)    (FT/S) (FT/S)
SHELL POINT                83      50/  4/  9 1013.7
KEATON BEACH               83      40/  7/ 11 1014.2F
CEDAR KEY                  81      80/  9/ 10 1014.6R
FERNANDINA                 86 86  100/  7/ 11 1016.5R
30.7N   81.3W                 85                N/A     4/13   2/13
MAYPORT                    82 85   70/ 12/ 16 1016.5S
31.4N   80.9W              81 85   50/ 16/ 17 1017.0F   3/13   2/13
ST AUGUSTINE               75 83  150/ 17/ 19 1016.5F

$$
FLZ040-043>046-052-053-057-058-063-144-301700-
INTERIOR CENTRAL FLORIDA
  
CITY           SKY/WX    TMP DP  RH WIND       PRES   REMARKS
OCALA          PTSUNNY   84  73  70 E6        29.96S                  
THE VILLAGES     N/A     86  77  74 MISG      29.85S HX  97           
LEESBURG       MOSUNNY   85  74  69 SE6       29.96R                  
SANFORD        MOSUNNY   87  73  62 E7        29.94F                  
ORLANDO EXEC   PTSUNNY   84  75  74 E7        29.94F                  
ORLANDO INTL   MOSUNNY   86  74  67 E8        29.94F                  
KISSIMMEE      PTSUNNY   84  74  71 SE6       29.95F                  
WINTER HAVEN   MOSUNNY   84  72  67 E5        29.95F                  
LAKELAND       PTSUNNY   84  75  74 E5        29.94F                  
BARTOW         PTSUNNY   82  73  74 SE6       29.94F                  
OKEECHOBEE     MOSUNNY   82  77  83 S5        29.95F                  

$$
FLZ041-047-054-059-064-141-147-301700-
EAST CENTRAL FLORIDA
  
CITY           SKY/WX    TMP DP  RH WIND       PRES   REMARKS
ORMOND BEACH   LGT RAIN  77  75  94 SE9G17    29.97S FOG              
DAYTONA BEACH  CLOUDY    79  76  90 E8G18     29.96F                  
DELAND         LGT RAIN  79  77  94 E9        29.95S                  
NEW SMYRNA BEA LGT RAIN  79  75  89 SE16      29.97S FOG              
JFK SPACE CTR  PTSUNNY   83  73  72 SE7       29.94F                  
TITUSVILLE     PTSUNNY   82  79  89 SE12      29.95F                  
CAPE CANAVERAL PTSUNNY   81  74  78 E10       29.93F                  
PATRICK AFB    MOSUNNY   83  75  76 E9        29.94F                  
MELBOURNE      MOSUNNY   83  76  79 E10       29.94F                  
VERO BEACH     PTSUNNY   86  77  74 VRB6      29.94F HX  97           
FT PIERCE      PTSUNNY   85  76  74 SW9       29.94F                  
STUART         PTSUNNY   86  77  74 S6        29.96F HX  97           

STATION/POSITION SKY/WX   TEMP    WIND        PRES    WAVE   SWELL
                          AIR SEA DIR/SP/G            HT/PER HT/PER
                          (F)     (DEG/KT/KT) (MB)    (FT/S) (FT/S)
TRIDENT PIER               77 86  100/  6/ 11 1014.8R
28.4N   80.5W                 84                N/A     3/12   2/12
27.5N   80.2W                 83                N/A     4/ 8   2/13

$$
FLZ050-056-061-142-242-148-248-149-249-151-251-155-255-
160-260-301700-
WEST CENTRAL FLORIDA
  
CITY           SKY/WX    TMP DP  RH WIND       PRES   REMARKS
CRYSTAL RIVER  FAIR      86  73  66 NE8       29.94S                  
INVERNESS        N/A     86  77  74 NE7       29.95S HX  97           
BROOKSVILLE    MOSUNNY   87  75  67 NE6       29.94F HX  96           
CLEARWATER AIR FAIR      82  73  74 E8        29.92F                  
ST PETE CLEARW MOSUNNY   87  77  72 E8        29.92F HX  99           
TAMPA INTL     PTSUNNY   86  75  69 VRB7      29.92F HX  95           
TAMPA EXEC     PTSUNNY   88  75  66 E7        29.93F HX  97           
PLANT CITY     MOSUNNY   88  77  70 SE8       29.95F HX 100           
MACDILL AFB    MOSUNNY   87  79  76 SE9       29.92F HX 101           
PETER O KNIGHT PTSUNNY   90  77  66 SE8       29.93S HX 102           
ST PETERSBURG  MOSUNNY   85  75  72 SE10      29.91F                  
SARASOTA       PTSUNNY   88  73  61 E10       29.90F HX  95           
VENICE         DRIZZLE   79  77  94 SE8       29.94R                  

STATION/POSITION SKY/WX   TEMP    WIND        PRES    WAVE   SWELL
                          AIR SEA DIR/SP/G            HT/PER HT/PER
                          (F)     (DEG/KT/KT) (MB)    (FT/S) (FT/S)
27.3N   84.2W                 86                N/A     4/ 6
CLEARWATER BEACH           84 85  100/  7/ 14 1013.4R
MIDDLE TAMPA BAY                  130/ 10/ 11 1013.9R
VENICE                     82 84  120/  8/ 10 1012.8R

$$
FLZ066-069-070-075>078-162-262-165-265-301700-
SOUTHWEST FLORIDA AND KEYS
  
CITY           SKY/WX    TMP DP  RH WIND       PRES   REMARKS
PUNTA GORDA    PTSUNNY   87  75  67 S13       29.94S HX  96           
FT MYERS       CLOUDY    83  73  72 S10       29.92S                  
SOUTHWEST INTL PTSUNNY   84  73  69 S13       29.94S                  
NAPLES         LGT RAIN  77  77 100 SE8       29.93F FOG              
MARATHON       LGT RAIN  78  76  93 S15G22    29.95S FOG              
KEY WEST NAS   LGT RAIN  82  74  76 S20G29    29.94R                  
KEY WEST INTL  CLOUDY    83  75  77 S25G33    29.93S                  

STATION/POSITION SKY/WX   TEMP    WIND        PRES    WAVE   SWELL
                          AIR SEA DIR/SP/G            HT/PER HT/PER
                          (F)     (DEG/KT/KT) (MB)    (FT/S) (FT/S)
NAPLES                        85              1013.8R
26.0N   85.6W              83 85  120/ 16/ 19 1010.3R   5/ 6   2/ 8
DRY TORTUGAS               80     210/ 21/ 23 1013.0R
SAND KEY                   82     190/ 26/ 31 1013.8R
LONG KEY                   83 84  160/ 17/ 19 1013.8F
MOLASSES REEF              84 85  170/ 20/ 21 1014.3S

$$
FLZ067-068-071>074-168-172>174-301700-
SOUTHEAST FLORIDA 
  
CITY           SKY/WX    TMP DP  RH WIND       PRES   REMARKS
W PALM BEACH   LGT RAIN  82  75  79 SE18G25   29.96F                  
BOCA RATON     PTSUNNY   84  79  84 SE12      29.95F HX  96           
FT LAUDER-EXEC CLOUDY    79  74  84 S8        29.95S THUNDER          
FT LAUDERDALE  LGT RAIN  78  75  90 SE7       29.94S                  
POMPANO BEACH  TSTM      80  76  87 S8        29.95F FOG              
OPA LOCKA      CLOUDY    84  77  79 S8        29.95F                  
MIAMI          LGT RAIN  83  76  79 S10G21    29.95S                  
WEST KENDALL   CLOUDY    85  75  72 S13G20    29.94S                  
HOMESTEAD      CLOUDY    86  76  71 SE9       29.94S HX  95           

STATION/POSITION SKY/WX   TEMP    WIND        PRES    WAVE   SWELL
                          AIR SEA DIR/SP/G            HT/PER HT/PER
                          (F)     (DEG/KT/KT) (MB)    (FT/S) (FT/S)
PORT EVERGLADES            81     150/  6/  9 1014.2S
VIRGINIA KEY               84 87  190/ 12/ 14 1014.5F
LAKE WORTH                 80 85  130/  9/ 11 1014.6R
FOWEY ROCKS                84 84  160/ 20/ 21 1014.6F
SETTLEMENT POINT           78     260/  2/  3 1016.5R

$$

  

Return to Home page


Western Regional Climate Center, wrcc@dri.edu